Hovedside
METAR-TAF:

METAR-TAF

Lufthavner :

Mosjøen, Norge

Mosjøen lufthavn

breddegrad: 65-48N, lengdegrad: 013-08E, høyde over havet: 70 m

Gjeldene værobservasjon

Denne rapporten ble laget for 3 timer og 15 minutter siden, klokken 19:20 UTC
Vind 3 kt fra Nord-nordvest
Temperatur 22°C
Luftfuktighet 43%
Trykk 1016 hPa
Sikt 10 km eller mer
ingen skyer under 1500 m og ingen bygeskyer

METAR: ENMS 241920Z 33003KT CAVOK 22/09 Q1016 RMK WIND 412FT VRB03KT

Tid: 00:35 (22:35 UTC)


TAF: fraværende

Værobservasjoner og værvarsel for over 4000 flyplasser (METAR- og TAF-rapporter).

Tilgjengelige stasjoner er representert av de røde og gule prikkene på kartet.

Hold musepekeren over prikken for å se navnet på stasjonen.

Klikk så for å se værobservasjoner og -varsler.

For å forandre kartet kan du klikke på den grønne knappen med svart kryss for å zoome inn, på den grønne knappen med strek for å zoome ut, eller på de grønne pilene for å se tilstøtende kart.


METAR-TAF: